TimeCDT,TemperatureF,Dew PointF,Humidity,Sea Level PressureIn,VisibilityMPH,Wind Direction,Wind SpeedMPH,Gust SpeedMPH,PrecipitationIn,Events,Conditions,WindDirDegrees,DateUTC
12:15 AM,41.9,40.1,93,30.07,10.0,Calm,Calm,-,N/A,,Clear,0,2013-10-08 05:15:00
12:35 AM,41.9,39.7,92,30.07,10.0,Calm,Calm,-,N/A,,Clear,0,2013-10-08 05:35:00
12:55 AM,41.2,39.4,93,30.07,10.0,Calm,Calm,-,N/A,,Clear,0,2013-10-08 05:55:00
1:15 AM,41.5,39.6,93,30.07,10.0,Calm,Calm,-,N/A,,Clear,0,2013-10-08 06:15:00
1:35 AM,40.8,39.0,93,30.08,10.0,Calm,Calm,-,N/A,,Clear,0,2013-10-08 06:35:00
1:55 AM,41.2,39.4,93,30.07,10.0,Calm,Calm,-,N/A,,Clear,0,2013-10-08 06:55:00
2:15 AM,39.4,37.6,93,30.08,10.0,Calm,Calm,-,N/A,,Clear,0,2013-10-08 07:15:00
2:35 AM,40.1,38.3,93,30.08,10.0,Calm,Calm,-,N/A,,Clear,0,2013-10-08 07:35:00
2:55 AM,40.1,38.3,93,30.09,10.0,Calm,Calm,-,N/A,,Clear,0,2013-10-08 07:55:00
3:15 AM,40.1,38.3,93,30.09,10.0,Calm,Calm,-,N/A,,Clear,0,2013-10-08 08:15:00
3:35 AM,39.4,37.6,93,30.10,10.0,Calm,Calm,-,N/A,,Clear,0,2013-10-08 08:35:00
3:55 AM,38.5,36.7,93,30.10,7.0,Calm,Calm,-,N/A,,Clear,0,2013-10-08 08:55:00
4:15 AM,39.4,37.8,94,30.10,10.0,Calm,Calm,-,N/A,,Clear,0,2013-10-08 09:15:00
4:35 AM,39.4,37.6,93,30.10,10.0,Calm,Calm,-,N/A,,Clear,0,2013-10-08 09:35:00
4:55 AM,39.2,37.4,93,30.11,10.0,Calm,Calm,-,N/A,,Clear,0,2013-10-08 09:55:00
5:15 AM,38.5,36.9,94,30.11,10.0,Calm,Calm,-,N/A,,Clear,0,2013-10-08 10:15:00
5:35 AM,38.5,36.9,94,30.11,10.0,Calm,Calm,-,N/A,,Clear,0,2013-10-08 10:35:00
5:55 AM,38.3,36.7,94,30.12,10.0,Calm,Calm,-,N/A,,Clear,0,2013-10-08 10:55:00
6:15 AM,38.3,36.7,94,30.12,10.0,Calm,Calm,-,N/A,,Clear,0,2013-10-08 11:15:00
6:35 AM,37.8,36.3,95,30.13,10.0,Calm,Calm,-,N/A,,Clear,0,2013-10-08 11:35:00
6:55 AM,37.6,36.0,94,30.13,10.0,Calm,Calm,-,N/A,,Clear,0,2013-10-08 11:55:00
7:15 AM,37.4,35.8,94,30.13,10.0,Calm,Calm,-,N/A,,Clear,0,2013-10-08 12:15:00
7:35 AM,37.8,36.3,95,30.13,10.0,Calm,Calm,-,N/A,,Clear,0,2013-10-08 12:35:00
7:55 AM,39.9,38.5,95,30.13,10.0,Calm,Calm,-,N/A,,Clear,0,2013-10-08 12:55:00
8:15 AM,42.4,41.0,95,30.14,10.0,Calm,Calm,-,N/A,,Clear,0,2013-10-08 13:15:00
8:35 AM,44.6,43.2,95,30.14,10.0,Calm,Calm,-,N/A,,Clear,0,2013-10-08 13:35:00
8:55 AM,46.9,45.7,95,30.13,10.0,Calm,Calm,-,N/A,,Clear,0,2013-10-08 13:55:00
9:15 AM,48.9,46.8,92,30.13,10.0,Calm,Calm,-,N/A,,Clear,0,2013-10-08 14:15:00
9:35 AM,52.2,46.9,82,30.13,10.0,Calm,Calm,-,N/A,,Clear,0,2013-10-08 14:35:00
9:55 AM,55.4,47.1,74,30.13,10.0,Calm,Calm,-,N/A,,Clear,0,2013-10-08 14:55:00
10:15 AM,58.6,48.0,68,30.12,10.0,SE,4.6,-,N/A,,Clear,140,2013-10-08 15:15:00
10:35 AM,62.1,48.6,61,30.12,10.0,SSE,5.8,-,N/A,,Clear,150,2013-10-08 15:35:00
10:55 AM,64.9,46.6,51,30.12,10.0,SSE,6.9,-,N/A,,Clear,160,2013-10-08 15:55:00
11:15 AM,67.3,45.3,45,30.11,10.0,South,10.4,-,N/A,,Clear,190,2013-10-08 16:15:00
11:35 AM,68.4,46.4,45,30.11,10.0,South,9.2,-,N/A,,Clear,170,2013-10-08 16:35:00
11:55 AM,69.6,47.3,45,30.11,10.0,South,9.2,-,N/A,,Clear,170,2013-10-08 16:55:00
12:15 PM,71.2,45.9,40,30.10,10.0,SSE,11.5,-,N/A,,Clear,160,2013-10-08 17:15:00
12:35 PM,71.6,45.9,40,30.10,10.0,SSW,10.4,-,N/A,,Clear,200,2013-10-08 17:35:00
12:55 PM,73.0,45.9,38,30.10,10.0,South,9.2,-,N/A,,Clear,180,2013-10-08 17:55:00
1:15 PM,73.4,44.6,36,30.08,10.0,South,10.4,-,N/A,,Clear,170,2013-10-08 18:15:00
1:35 PM,74.5,44.2,34,30.08,10.0,South,8.1,-,N/A,,Clear,190,2013-10-08 18:35:00
1:55 PM,75.4,43.9,32,30.07,10.0,South,12.7,18.4,N/A,,Clear,180,2013-10-08 18:55:00
2:15 PM,75.4,41.7,30,30.06,10.0,SSW,15.0,-,N/A,,Clear,200,2013-10-08 19:15:00
2:35 PM,75.4,39.4,27,30.06,10.0,SSW,18.4,24.2,N/A,,Clear,200,2013-10-08 19:35:00
2:55 PM,76.3,41.7,29,30.06,10.0,SSW,12.7,18.4,N/A,,Clear,200,2013-10-08 19:55:00
3:15 PM,76.3,41.9,29,30.06,10.0,South,11.5,18.4,N/A,,Clear,190,2013-10-08 20:15:00
3:35 PM,75.7,40.8,29,30.05,10.0,South,16.1,21.9,N/A,,Clear,190,2013-10-08 20:35:00
3:55 PM,75.4,41.0,29,30.05,10.0,SSW,13.8,-,N/A,,Clear,200,2013-10-08 20:55:00
4:15 PM,75.4,42.4,31,30.05,10.0,South,12.7,19.6,N/A,,Clear,190,2013-10-08 21:15:00
4:35 PM,75.4,41.5,30,30.05,10.0,South,11.5,-,N/A,,Clear,190,2013-10-08 21:35:00
4:55 PM,73.9,43.5,34,30.05,10.0,South,9.2,-,N/A,,Clear,180,2013-10-08 21:55:00
5:15 PM,72.0,45.0,38,30.04,10.0,South,8.1,-,N/A,,Clear,180,2013-10-08 22:15:00
5:35 PM,71.2,44.2,38,30.05,10.0,South,5.8,-,N/A,,Clear,190,2013-10-08 22:35:00
5:55 PM,70.0,45.0,41,30.05,10.0,SSE,5.8,-,N/A,,Clear,160,2013-10-08 22:55:00
6:15 PM,67.6,45.9,46,30.05,10.0,SSE,5.8,-,N/A,,Clear,160,2013-10-08 23:15:00
6:35 PM,65.5,46.4,50,30.05,10.0,SSE,5.8,-,N/A,,Clear,160,2013-10-08 23:35:00
6:55 PM,65.1,46.0,50,30.05,10.0,South,6.9,-,N/A,,Clear,170,2013-10-08 23:55:00
7:15 PM,64.0,46.0,52,30.06,10.0,SSE,5.8,-,N/A,,Clear,160,2013-10-09 00:15:00
7:35 PM,62.4,45.9,55,30.06,10.0,SSE,4.6,-,N/A,,Clear,150,2013-10-09 00:35:00
7:55 PM,60.8,45.9,58,30.06,10.0,Calm,Calm,-,N/A,,Clear,0,2013-10-09 00:55:00
8:15 PM,61.7,45.9,56,30.07,10.0,SSE,3.5,-,N/A,,Clear,150,2013-10-09 01:15:00
8:35 PM,59.4,46.2,62,30.08,10.0,Calm,Calm,-,N/A,,Clear,0,2013-10-09 01:35:00
8:55 PM,58.3,46.0,64,30.08,10.0,SSE,3.5,-,N/A,,Clear,150,2013-10-09 01:55:00
9:15 PM,56.8,45.9,67,30.08,10.0,SSE,3.5,-,N/A,,Clear,150,2013-10-09 02:15:00
9:35 PM,56.7,46.0,68,30.09,10.0,Calm,Calm,-,N/A,,Clear,0,2013-10-09 02:35:00
9:55 PM,55.6,46.0,70,30.09,10.0,Calm,Calm,-,N/A,,Clear,0,2013-10-09 02:55:00
10:15 PM,53.4,46.0,76,30.09,10.0,SE,3.5,-,N/A,,Clear,130,2013-10-09 03:15:00
10:35 PM,53.6,46.6,77,30.09,10.0,SE,5.8,-,N/A,,Clear,140,2013-10-09 03:35:00
10:55 PM,55.4,46.8,73,30.09,10.0,SSE,3.5,-,N/A,,Clear,150,2013-10-09 03:55:00
11:15 PM,55.4,46.4,72,30.09,10.0,South,4.6,-,N/A,,Clear,170,2013-10-09 04:15:00
11:35 PM,55.6,46.6,72,30.10,10.0,South,4.6,-,N/A,,Clear,180,2013-10-09 04:35:00
11:55 PM,54.0,46.2,75,30.10,10.0,Calm,Calm,-,N/A,,Clear,0,2013-10-09 04:55:00